Location: Camerons Lookout
(40.9833°S, 175.9333°E)
Time: 20:59:51
(UTC+00:00)

SL-24 R/B - RUBIN 2 - Pass Details

Date: 14 January 2026
Orbit: 602 x 984 km, 64.6° (Epoch: 18 February)

Event Time Altitude Azimuth Distance (km) Brightness Sun altitude
Exits shadow 10:55:36 31° 315° (NW) 1,409 5.1 -24.4°
Maximum altitude 10:58:22 74° 235° (SW) 900 4.3 -24.6°
Drops below altitude 10° 11:04:32 10° 150° (SSE) 2,642 7.2 -25.0°
Sets 11:07:13 0° 148° (SSE) 3,635 8.0 -25.2°
